Kiana, AK

8:00 AM AKST on February 27, 2017 (GMT -0900)
Baker Memorial

Weather History for PAIK - March, 2013

Change the Weather History Date:

Thursday, March 28, 2013

  Actual Average (PASK) Record (PASK)
Temperature  
Mean Temperature -6 °F -  
Max Temperature 8 °F 5 °F 21 °F (2012)
Min Temperature -22 °F -5 °F -27 °F (1997)
Degree Days  
Heating Degree Days 71    
Moisture  
Dew Point -15 °F    
Average Humidity 63    
Maximum Humidity 82    
Minimum Humidity 46    
Precipitation  
Precipitation 0.00 in - - ()
Sea Level Pressure  
Sea Level Pressure 30.21 in    
Wind  
Wind Speed 4 mph (ENE)    
Max Wind Speed 14 mph    
Max Gust Speed 18 mph    
Visibility 10 miles    
Events Snow    
Averages and records for this station are not official NWS values.
T = Trace of Precipitation, MM = Missing Value Source: NWS Daily Summary

Daily Weather History Graph

Daily Weather History Graph

Search for Another Location

Airport or City:

Trip Planner

Search our weather history database for the weather conditions in past years. The results will help you decide how hot, cold, wet, or windy it might be!

Date:

Astronomy

Mar. 28, 2013 Rise Set
Actual Time 8:07 AM AKDT 9:27 PM AKDT
Civil Twilight 7:12 AM AKDT 10:23 PM AKDT
Nautical Twilight 6:00 AM AKDT 11:36 PM AKDT
Astronomical Twilight 4:18 AM AKDT 1:24 AM AKDT
Moon No Moon Rise 7:48 AM AKDT (3/28)
Length of Visible Light 15h 10m
Length of Day
13h 20m
Full, 97% of the Moon is Illuminated
Mar 28
Full
Apr 2
Last Quarter
Apr 10
New
Apr 18
First Quarter
Apr 25
Full

Hourly Weather History & Observations

Time (AKDT) Temp. Windchill Dew Point Humidity Pressure Visibility Wind Dir Wind Speed Gust Speed Precip Events Conditions
12:01 AM -11.0 °F - -18.0 °F 71% 30.34 in 10.0 mi Calm Calm - N/A   Clear
1:01 AM -11.9 °F -21.5 °F -18.9 °F 71% 30.34 in 10.0 mi NE 3.5 mph - N/A   Clear
2:01 AM -13.0 °F - -18.9 °F 75% 30.32 in 10.0 mi Calm Calm - N/A   Clear
3:01 AM -15.0 °F -27.4 °F -20.0 °F 78% 30.32 in 10.0 mi ENE 4.6 mph - N/A   Clear
4:01 AM -16.1 °F - -20.9 °F 79% 30.31 in 10.0 mi Calm Calm - N/A   Clear
5:01 AM -18.0 °F -28.5 °F -22.0 °F 82% 30.29 in 10.0 mi NNE 3.5 mph - N/A   Clear
6:01 AM -20.0 °F - -24.0 °F 82% 30.28 in 10.0 mi Calm Calm - N/A   Clear
7:01 AM -22.0 °F -35.6 °F -27.0 °F 77% 30.27 in 10.0 mi ENE 4.6 mph - N/A   Clear
8:01 AM -22.0 °F -33.0 °F -27.0 °F 77% 30.25 in 10.0 mi East 3.5 mph - N/A   Clear
9:01 AM -18.9 °F - -24.0 °F 78% 30.25 in 10.0 mi Calm Calm - N/A   Clear
10:01 AM -13.0 °F -22.7 °F -20.9 °F 68% 30.23 in 10.0 mi ENE 3.5 mph - N/A   Clear
11:01 AM -9.0 °F -18.2 °F -18.9 °F 62% 30.23 in 10.0 mi East 3.5 mph - N/A   Clear
12:01 PM -5.1 °F -13.6 °F -17.0 °F 57% 30.22 in 10.0 mi ENE 3.5 mph - N/A   Clear
1:01 PM 5.0 °F -4.1 °F -11.9 °F 46% 30.20 in 10.0 mi North 4.6 mph - N/A   Clear
2:01 PM 5.0 °F -8.1 °F -11.0 °F 48% 30.18 in 10.0 mi ENE 8.1 mph - N/A   Clear
3:01 PM 7.0 °F -9.1 °F -9.0 °F 48% 30.15 in 10.0 mi East 12.7 mph 18.4 mph N/A   Clear
4:01 PM 8.1 °F -7.0 °F -8.0 °F 48% 30.14 in 10.0 mi East 11.5 mph - N/A   Clear
5:01 PM 8.1 °F -8.4 °F -7.1 °F 50% 30.11 in 10.0 mi East 13.8 mph - N/A   Clear
6:01 PM 9.0 °F -6.6 °F -7.1 °F 48% 30.10 in 10.0 mi East 12.7 mph - N/A   Clear
7:01 PM 10.0 °F 0.4 °F -6.0 °F 48% 30.10 in 10.0 mi East 5.8 mph - N/A   Partly Cloudy
8:01 PM 8.1 °F -5.3 °F -7.1 °F 50% 30.09 in 10.0 mi NNW 9.2 mph - N/A   Mostly Cloudy
9:01 PM 9.0 °F -4.2 °F -4.0 °F 56% 30.09 in 10.0 mi East 9.2 mph 18.4 mph N/A   Overcast
10:01 PM 8.1 °F -5.3 °F -6.0 °F 53% 30.08 in 9.0 mi NNW 9.2 mph - 0.00 in Snow Light Snow
11:01 PM 7.0 °F -7.5 °F -4.0 °F 61% 30.08 in 9.0 mi NNW 10.4 mph - 0.00 in Snow Light Snow